Location: Unspecified
(48.2082°N, 0.0000°E)
Time: 12:48:08
(UTC+00:00)

Transit 4A - Pass Details

Date: 19 June 2019
Orbit: 862 x 982 km, 66.8° (Epoch: 21 July)

Event Time Altitude Azimuth Distance (km) Brightness Sun altitude
Rises 12:07:43 0° 284° (WNW) 3,669 11.0 65.2°
Reaches altitude 10° 12:11:21 10° 304° (NW) 2,735 10.4 65.1°
Maximum altitude 12:15:22 17° 343° (NNW) 2,276 9.9 65.1°
Drops below altitude 10° 12:19:24 10° 23° (NNE) 2,746 10.2 65.0°
Sets 12:23:03 0° 43° (NE) 3,690 10.8 64.8°
